Time,TemperatureF,DewpointF,PressureIn,WindDirection,WindDirectionDegrees,WindSpeedMPH,WindSpeedGustMPH,Humidity,HourlyPrecipIn,Conditions,Clouds,dailyrainin,SoftwareType,DateUTC
2013-02-18 00:00:00,0.9,0.0,29.90,South,180,9.0,12.0,85,0.00,,,0.00,Rainwise IP-100,2013-02-18 05:00:00,
2013-02-18 00:01:00,0.9,0.0,29.90,South,180,1.0,12.0,85,0.00,,,0.00,Rainwise IP-100,2013-02-18 05:01:00,
2013-02-18 00:02:00,0.9,0.0,29.90,SE,135,0.0,12.0,86,0.00,,,0.00,Rainwise IP-100,2013-02-18 05:02:00,
2013-02-18 00:07:00,0.8,0.0,29.89,North,360,6.0,6.0,84,0.00,,,0.00,Rainwise IP-100,2013-02-18 05:07:00,
2013-02-18 00:08:00,0.7,0.0,29.89,West,270,4.0,7.0,84,0.00,,,0.00,Rainwise IP-100,2013-02-18 05:08:00,
2013-02-18 00:13:00,0.7,0.0,29.90,SW,225,1.0,15.0,85,0.00,,,0.00,Rainwise IP-100,2013-02-18 05:13:00,
2013-02-18 00:19:00,0.6,0.0,29.90,NW,315,1.0,7.0,84,0.00,,,0.00,Rainwise IP-100,2013-02-18 05:19:00,
2013-02-18 00:24:00,0.6,0.0,29.90,SSE,157,2.0,6.0,85,0.00,,,0.00,Rainwise IP-100,2013-02-18 05:24:00,
2013-02-18 00:29:00,0.5,0.0,29.90,NNE,22,3.0,7.0,85,0.00,,,0.00,Rainwise IP-100,2013-02-18 05:29:00,
2013-02-18 00:34:00,0.5,0.0,29.90,SSE,157,2.0,5.0,84,0.00,,,0.00,Rainwise IP-100,2013-02-18 05:34:00,
2013-02-18 00:39:00,0.4,-6.0,29.91,WSW,247,3.0,9.0,85,0.00,,,0.00,Rainwise IP-100,2013-02-18 05:39:00,
2013-02-18 00:44:00,0.4,-6.0,29.91,SE,135,1.0,7.0,84,0.00,,,0.00,Rainwise IP-100,2013-02-18 05:44:00,
2013-02-18 00:49:00,0.3,-6.0,29.93,South,180,4.0,6.0,84,0.00,,,0.00,Rainwise IP-100,2013-02-18 05:49:00,
2013-02-18 00:54:00,0.1,-6.0,29.93,East,90,2.0,6.0,84,0.00,,,0.00,Rainwise IP-100,2013-02-18 05:54:00,
2013-02-18 00:59:00,0.1,-6.0,29.93,NW,315,0.0,11.0,84,0.00,,,0.00,Rainwise IP-100,2013-02-18 05:59:00,
2013-02-18 01:04:00,0.1,-6.0,29.93,WSW,247,6.0,17.0,83,0.00,,,0.00,Rainwise IP-100,2013-02-18 06:04:00,
2013-02-18 01:09:00,0.1,-6.0,29.93,West,270,0.0,9.0,83,0.00,,,0.00,Rainwise IP-100,2013-02-18 06:09:00,
2013-02-18 01:14:00,0.1,-6.0,29.93,WSW,247,7.0,9.0,83,0.00,,,0.00,Rainwise IP-100,2013-02-18 06:14:00,
2013-02-18 01:20:00,0.1,-6.0,29.93,North,360,0.0,9.0,83,0.00,,,0.00,Rainwise IP-100,2013-02-18 06:20:00,
2013-02-18 01:25:00,0.1,-6.0,29.93,NW,315,3.0,11.0,83,0.00,,,0.00,Rainwise IP-100,2013-02-18 06:25:00,
2013-02-18 01:30:00,0.1,-6.0,29.94,East,90,1.0,8.0,83,0.00,,,0.00,Rainwise IP-100,2013-02-18 06:30:00,
2013-02-18 01:35:00,0.1,-6.0,29.94,North,360,9.0,9.0,84,0.00,,,0.00,Rainwise IP-100,2013-02-18 06:35:00,
2013-02-18 01:40:00,0.1,-6.0,29.95,WSW,247,2.0,12.0,83,0.00,,,0.00,Rainwise IP-100,2013-02-18 06:40:00,
2013-02-18 01:45:00,0.1,-6.0,29.95,SSE,157,2.0,4.0,84,0.00,,,0.00,Rainwise IP-100,2013-02-18 06:45:00,
2013-02-18 01:50:00,0.1,-6.0,29.95,WNW,292,11.0,11.0,83,0.00,,,0.00,Rainwise IP-100,2013-02-18 06:50:00,
2013-02-18 01:55:00,0.3,-6.0,29.95,North,360,2.0,12.0,82,0.00,,,0.00,Rainwise IP-100,2013-02-18 06:55:00,
2013-02-18 02:00:00,0.4,-6.0,29.95,SW,225,0.0,6.0,83,0.00,,,0.00,Rainwise IP-100,2013-02-18 07:00:00,
2013-02-18 02:05:00,0.5,-6.0,29.96,NNE,22,2.0,8.0,82,0.00,,,0.00,Rainwise IP-100,2013-02-18 07:05:00,
2013-02-18 02:10:00,0.7,-6.0,29.95,West,270,1.0,6.0,82,0.00,,,0.00,Rainwise IP-100,2013-02-18 07:10:00,
2013-02-18 02:15:00,0.9,-6.0,29.96,West,270,4.0,7.0,82,0.00,,,0.00,Rainwise IP-100,2013-02-18 07:15:00,
2013-02-18 02:21:00,0.9,-6.0,29.96,WNW,292,3.0,8.0,82,0.00,,,0.00,Rainwise IP-100,2013-02-18 07:21:00,
2013-02-18 02:26:00,-1.1,-6.0,29.97,SW,225,2.0,12.0,82,0.00,,,0.00,Rainwise IP-100,2013-02-18 07:26:00,
2013-02-18 02:31:00,-1.1,-6.0,29.97,SW,225,0.0,6.0,82,0.00,,,0.00,Rainwise IP-100,2013-02-18 07:31:00,
2013-02-18 02:36:00,-1.2,-6.0,29.97,SW,225,2.0,10.0,82,0.00,,,0.00,Rainwise IP-100,2013-02-18 07:36:00,
2013-02-18 02:41:00,-1.2,-6.0,29.97,WSW,247,1.0,6.0,83,0.00,,,0.00,Rainwise IP-100,2013-02-18 07:41:00,
2013-02-18 02:46:00,-1.3,-6.0,29.97,WNW,292,0.0,9.0,83,0.00,,,0.00,Rainwise IP-100,2013-02-18 07:46:00,
2013-02-18 02:51:00,-1.3,-6.0,29.98,WNW,292,1.0,6.0,83,0.00,,,0.00,Rainwise IP-100,2013-02-18 07:51:00,
2013-02-18 02:56:00,-1.5,-6.0,29.98,North,360,2.0,4.0,84,0.00,,,0.00,Rainwise IP-100,2013-02-18 07:56:00,
2013-02-18 03:01:00,-1.6,-6.0,29.97,West,270,1.0,9.0,84,0.00,,,0.00,Rainwise IP-100,2013-02-18 08:01:00,
2013-02-18 03:06:00,-1.7,-6.0,29.98,South,180,1.0,9.0,84,0.00,,,0.00,Rainwise IP-100,2013-02-18 08:06:00,
2013-02-18 03:11:00,-1.7,-6.0,29.98,West,270,2.0,7.0,84,0.00,,,0.00,Rainwise IP-100,2013-02-18 08:11:00,
2013-02-18 03:16:00,-1.9,-6.0,29.98,North,360,6.0,7.0,84,0.00,,,0.00,Rainwise IP-100,2013-02-18 08:16:00,
2013-02-18 03:22:00,-1.9,-6.0,29.99,SSW,202,3.0,8.0,85,0.00,,,0.00,Rainwise IP-100,2013-02-18 08:22:00,
2013-02-18 03:27:00,-2.1,-6.0,29.99,East,90,1.0,7.0,85,0.00,,,0.00,Rainwise IP-100,2013-02-18 08:27:00,
2013-02-18 03:32:00,-2.1,-6.0,29.99,WNW,292,2.0,5.0,85,0.00,,,0.00,Rainwise IP-100,2013-02-18 08:32:00,
2013-02-18 03:37:00,-2.2,-6.0,29.99,SSW,202,3.0,8.0,84,0.00,,,0.00,Rainwise IP-100,2013-02-18 08:37:00,
2013-02-18 03:42:00,-2.3,-6.0,29.99,South,180,1.0,6.0,85,0.00,,,0.00,Rainwise IP-100,2013-02-18 08:42:00,
2013-02-18 03:47:00,-2.4,-6.0,29.99,East,90,4.0,11.0,85,0.00,,,0.00,Rainwise IP-100,2013-02-18 08:47:00,
2013-02-18 03:52:00,-2.5,-6.0,29.99,SW,225,5.0,5.0,85,0.00,,,0.00,Rainwise IP-100,2013-02-18 08:52:00,
2013-02-18 03:57:00,-2.6,-6.0,29.99,SW,225,2.0,10.0,85,0.00,,,0.00,Rainwise IP-100,2013-02-18 08:57:00,
2013-02-18 04:02:00,-2.7,-6.0,29.99,SW,225,2.0,11.0,84,0.00,,,0.00,Rainwise IP-100,2013-02-18 09:02:00,
2013-02-18 04:07:00,-2.8,-6.0,29.99,South,180,1.0,7.0,85,0.00,,,0.00,Rainwise IP-100,2013-02-18 09:07:00,
2013-02-18 04:12:00,-2.9,-6.0,30.00,WSW,247,2.0,8.0,85,0.00,,,0.00,Rainwise IP-100,2013-02-18 09:12:00,
2013-02-18 04:17:00,-2.9,-6.0,30.00,NW,315,2.0,7.0,85,0.00,,,0.00,Rainwise IP-100,2013-02-18 09:17:00,
2013-02-18 04:23:00,-2.9,-6.0,30.00,West,270,4.0,7.0,85,0.00,,,0.00,Rainwise IP-100,2013-02-18 09:23:00,
2013-02-18 04:28:00,-2.9,-6.0,30.01,WNW,292,2.0,11.0,85,0.00,,,0.00,Rainwise IP-100,2013-02-18 09:28:00,
2013-02-18 04:33:00,-3.1,-6.0,30.01,West,270,2.0,6.0,86,0.00,,,0.00,Rainwise IP-100,2013-02-18 09:33:00,
2013-02-18 04:38:00,-3.1,-6.0,30.01,SSW,202,1.0,12.0,85,0.00,,,0.00,Rainwise IP-100,2013-02-18 09:38:00,
2013-02-18 04:43:00,-3.2,-6.0,30.01,West,270,6.0,7.0,85,0.00,,,0.00,Rainwise IP-100,2013-02-18 09:43:00,
2013-02-18 04:48:00,-3.3,-6.0,30.01,NW,315,3.0,8.0,86,0.00,,,0.00,Rainwise IP-100,2013-02-18 09:48:00,
2013-02-18 04:53:00,-3.5,-6.0,30.01,West,270,7.0,10.0,84,0.00,,,0.00,Rainwise IP-100,2013-02-18 09:53:00,
2013-02-18 04:58:00,-3.5,-6.0,30.02,West,270,2.0,10.0,84,0.00,,,0.00,Rainwise IP-100,2013-02-18 09:58:00,
2013-02-18 05:03:00,-3.5,-6.0,30.02,SW,225,2.0,13.0,84,0.00,,,0.00,Rainwise IP-100,2013-02-18 10:03:00,
2013-02-18 05:08:00,-3.5,-6.0,30.02,SW,225,1.0,6.0,84,0.00,,,0.00,Rainwise IP-100,2013-02-18 10:08:00,
2013-02-18 05:13:00,-3.5,-6.0,30.03,WSW,247,1.0,6.0,85,0.00,,,0.00,Rainwise IP-100,2013-02-18 10:13:00,
2013-02-18 05:18:00,-3.5,-6.0,30.03,South,180,2.0,10.0,84,0.00,,,0.00,Rainwise IP-100,2013-02-18 10:18:00,
2013-02-18 05:24:00,-3.4,-6.0,30.03,West,270,4.0,11.0,83,0.00,,,0.00,Rainwise IP-100,2013-02-18 10:24:00,
2013-02-18 05:29:00,-3.3,-6.0,30.03,SW,225,2.0,6.0,85,0.00,,,0.00,Rainwise IP-100,2013-02-18 10:29:00,
2013-02-18 05:34:00,-3.3,-6.0,30.04,SW,225,4.0,14.0,83,0.00,,,0.00,Rainwise IP-100,2013-02-18 10:34:00,
2013-02-18 05:39:00,-3.2,-6.0,30.04,West,270,4.0,11.0,85,0.00,,,0.00,Rainwise IP-100,2013-02-18 10:39:00,
2013-02-18 05:44:00,-3.2,-6.0,30.05,NW,315,2.0,11.0,84,0.00,,,0.00,Rainwise IP-100,2013-02-18 10:44:00,
2013-02-18 05:49:00,-3.2,-6.0,30.04,WNW,292,2.0,12.0,85,0.00,,,0.00,Rainwise IP-100,2013-02-18 10:49:00,
2013-02-18 05:54:00,-3.3,-6.0,30.05,West,270,1.0,9.0,84,0.00,,,0.00,Rainwise IP-100,2013-02-18 10:54:00,
2013-02-18 05:59:00,-3.3,-6.0,30.05,SSW,202,1.0,8.0,85,0.00,,,0.00,Rainwise IP-100,2013-02-18 10:59:00,
2013-02-18 06:04:00,-3.4,-6.0,30.05,WSW,247,7.0,15.0,84,0.00,,,0.00,Rainwise IP-100,2013-02-18 11:04:00,
2013-02-18 06:09:00,-3.4,-6.0,30.06,NW,315,1.0,8.0,85,0.00,,,0.00,Rainwise IP-100,2013-02-18 11:09:00,
2013-02-18 06:14:00,-3.4,-6.0,30.06,NW,315,1.0,11.0,85,0.00,,,0.00,Rainwise IP-100,2013-02-18 11:14:00,
2013-02-18 06:19:00,-3.5,-6.0,30.07,South,180,9.0,9.0,85,0.00,,,0.00,Rainwise IP-100,2013-02-18 11:19:00,
2013-02-18 06:25:00,-3.5,-6.0,30.07,WSW,247,2.0,10.0,85,0.00,,,0.00,Rainwise IP-100,2013-02-18 11:25:00,
2013-02-18 06:30:00,-3.5,-6.0,30.07,WNW,292,2.0,9.0,84,0.00,,,0.00,Rainwise IP-100,2013-02-18 11:30:00,
2013-02-18 06:35:00,-3.5,-6.0,30.07,WNW,292,3.0,12.0,85,0.00,,,0.00,Rainwise IP-100,2013-02-18 11:35:00,
2013-02-18 06:40:00,-3.6,-6.0,30.07,SW,225,1.0,9.0,84,0.00,,,0.00,Rainwise IP-100,2013-02-18 11:40:00,
2013-02-18 06:45:00,-3.6,-6.0,30.07,NW,315,2.0,11.0,85,0.00,,,0.00,Rainwise IP-100,2013-02-18 11:45:00,
2013-02-18 06:50:00,-3.8,-6.0,30.07,WNW,292,4.0,8.0,85,0.00,,,0.00,Rainwise IP-100,2013-02-18 11:50:00,
2013-02-18 06:55:00,-3.8,-6.0,30.08,SE,135,2.0,7.0,85,0.00,,,0.00,Rainwise IP-100,2013-02-18 11:55:00,
2013-02-18 07:01:00,-3.8,-6.0,30.08,West,270,4.0,9.0,85,0.00,,,0.00,Rainwise IP-100,2013-02-18 12:01:00,
2013-02-18 07:06:00,-3.8,-6.0,30.08,WNW,292,1.0,10.0,85,0.00,,,0.00,Rainwise IP-100,2013-02-18 12:06:00,
2013-02-18 07:11:00,-3.9,-6.0,30.08,South,180,1.0,7.0,86,0.00,,,0.00,Rainwise IP-100,2013-02-18 12:11:00,
2013-02-18 07:16:00,-3.9,-6.0,30.08,WSW,247,1.0,12.0,85,0.00,,,0.00,Rainwise IP-100,2013-02-18 12:16:00,
2013-02-18 07:22:00,-4.1,-6.0,30.09,SSE,157,1.0,11.0,85,0.00,,,0.00,Rainwise IP-100,2013-02-18 12:22:00,
2013-02-18 07:27:00,-4.1,-6.0,30.09,West,270,5.0,11.0,85,0.00,,,0.00,Rainwise IP-100,2013-02-18 12:27:00,
2013-02-18 07:32:00,-4.1,-6.0,30.09,West,270,1.0,12.0,85,0.00,,,0.00,Rainwise IP-100,2013-02-18 12:32:00,
2013-02-18 07:37:00,-4.1,-6.0,30.09,WNW,292,6.0,11.0,85,0.00,,,0.00,Rainwise IP-100,2013-02-18 12:37:00,
2013-02-18 07:42:00,-4.1,-6.0,30.09,WSW,247,1.0,8.0,86,0.00,,,0.00,Rainwise IP-100,2013-02-18 12:42:00,
2013-02-18 07:47:00,-4.1,-6.0,30.09,WSW,247,2.0,8.0,85,0.00,,,0.00,Rainwise IP-100,2013-02-18 12:47:00,
2013-02-18 07:52:00,-4.1,-6.0,30.09,West,270,3.0,13.0,85,0.00,,,0.00,Rainwise IP-100,2013-02-18 12:52:00,
2013-02-18 07:57:00,-4.1,-6.0,30.09,WNW,292,2.0,8.0,85,0.00,,,0.00,Rainwise IP-100,2013-02-18 12:57:00,
2013-02-18 08:02:00,-3.7,-6.0,30.09,West,270,2.0,11.0,84,0.00,,,0.00,Rainwise IP-100,2013-02-18 13:02:00,
2013-02-18 08:07:00,-3.5,-6.0,30.09,SE,135,2.0,9.0,84,0.00,,,0.00,Rainwise IP-100,2013-02-18 13:07:00,
2013-02-18 08:12:00,-2.6,-6.0,30.09,NW,315,5.0,14.0,83,0.00,,,0.00,Rainwise IP-100,2013-02-18 13:12:00,
2013-02-18 08:17:00,-2.1,-6.0,30.09,SW,225,2.0,8.0,82,0.00,,,0.00,Rainwise IP-100,2013-02-18 13:17:00,
2013-02-18 08:23:00,-1.6,-6.0,30.10,West,270,2.0,9.0,80,0.00,,,0.00,Rainwise IP-100,2013-02-18 13:23:00,
2013-02-18 08:28:00,-1.4,-6.0,30.11,SSW,202,1.0,11.0,79,0.00,,,0.00,Rainwise IP-100,2013-02-18 13:28:00,
2013-02-18 08:33:00,-1.1,-6.0,30.11,West,270,6.0,11.0,79,0.00,,,0.00,Rainwise IP-100,2013-02-18 13:33:00,
2013-02-18 08:38:00,0.7,-6.0,30.11,North,360,1.0,11.0,78,0.00,,,0.00,Rainwise IP-100,2013-02-18 13:38:00,
2013-02-18 08:43:00,0.4,-6.0,30.11,NW,315,2.0,12.0,77,0.00,,,0.00,Rainwise IP-100,2013-02-18 13:43:00,
2013-02-18 08:48:00,0.3,-6.0,30.11,West,270,1.0,12.0,77,0.00,,,0.00,Rainwise IP-100,2013-02-18 13:48:00,
2013-02-18 08:53:00,0.1,-6.0,30.12,West,270,2.0,12.0,76,0.00,,,0.00,Rainwise IP-100,2013-02-18 13:53:00,
2013-02-18 08:58:00,0.1,-6.0,30.12,SSW,202,5.0,11.0,76,0.00,,,0.00,Rainwise IP-100,2013-02-18 13:58:00,
2013-02-18 09:03:00,0.8,0.0,30.12,West,270,4.0,9.0,75,0.00,,,0.00,Rainwise IP-100,2013-02-18 14:03:00,
2013-02-18 09:08:00,1.3,0.0,30.11,SW,225,6.0,7.0,74,0.00,,,0.00,Rainwise IP-100,2013-02-18 14:08:00,
2013-02-18 09:13:00,1.3,0.0,30.11,North,360,3.0,11.0,74,0.00,,,0.00,Rainwise IP-100,2013-02-18 14:13:00,
2013-02-18 09:18:00,1.5,0.0,30.12,SW,225,4.0,12.0,72,0.00,,,0.00,Rainwise IP-100,2013-02-18 14:18:00,
2013-02-18 09:24:00,2.1,0.0,30.12,West,270,4.0,11.0,72,0.00,,,0.00,Rainwise IP-100,2013-02-18 14:24:00,
2013-02-18 09:29:00,2.4,-6.0,30.12,NW,315,7.0,10.0,69,0.00,,,0.00,Rainwise IP-100,2013-02-18 14:29:00,
2013-02-18 09:34:00,2.1,-6.0,30.12,SW,225,5.0,11.0,69,0.00,,,0.00,Rainwise IP-100,2013-02-18 14:34:00,
2013-02-18 09:39:00,2.4,-6.0,30.12,SW,225,12.0,12.0,68,0.00,,,0.00,Rainwise IP-100,2013-02-18 14:39:00,
2013-02-18 09:44:00,2.8,-6.0,30.12,SW,225,4.0,12.0,66,0.00,,,0.00,Rainwise IP-100,2013-02-18 14:44:00,
2013-02-18 09:49:00,3.2,-6.0,30.12,WNW,292,2.0,11.0,66,0.00,,,0.00,Rainwise IP-100,2013-02-18 14:49:00,
2013-02-18 09:54:00,3.5,-6.0,30.12,West,270,2.0,10.0,64,0.00,,,0.00,Rainwise IP-100,2013-02-18 14:54:00,
2013-02-18 09:59:00,3.6,-6.0,30.12,NW,315,3.0,12.0,63,0.00,,,0.00,Rainwise IP-100,2013-02-18 14:59:00,
2013-02-18 10:04:00,4.4,-6.0,30.12,SW,225,3.0,9.0,63,0.00,,,0.00,Rainwise IP-100,2013-02-18 15:04:00,
2013-02-18 10:09:00,4.5,0.0,30.11,WSW,247,2.0,8.0,61,0.00,,,0.00,Rainwise IP-100,2013-02-18 15:09:00,
2013-02-18 10:14:00,5.5,0.0,30.12,South,180,4.0,11.0,60,0.00,,,0.00,Rainwise IP-100,2013-02-18 15:14:00,
2013-02-18 10:19:00,6.1,0.0,30.11,NW,315,1.0,12.0,59,0.00,,,0.00,Rainwise IP-100,2013-02-18 15:19:00,
2013-02-18 10:25:00,6.4,-6.0,30.11,SSE,157,2.0,7.0,58,0.00,,,0.00,Rainwise IP-100,2013-02-18 15:25:00,
2013-02-18 10:30:00,6.4,-6.0,30.12,NW,315,1.0,7.0,58,0.00,,,0.00,Rainwise IP-100,2013-02-18 15:30:00,
2013-02-18 10:35:00,6.9,-6.0,30.12,ESE,112,4.0,11.0,55,0.00,,,0.00,Rainwise IP-100,2013-02-18 15:35:00,
2013-02-18 10:40:00,6.9,-6.0,30.12,SW,225,4.0,12.0,54,0.00,,,0.00,Rainwise IP-100,2013-02-18 15:40:00,
2013-02-18 10:45:00,7.4,-6.0,30.12,WSW,247,4.0,10.0,53,0.00,,,0.00,Rainwise IP-100,2013-02-18 15:45:00,
2013-02-18 10:50:00,7.2,-6.0,30.12,West,270,3.0,12.0,52,0.00,,,0.00,Rainwise IP-100,2013-02-18 15:50:00,
2013-02-18 10:55:00,7.4,-6.0,30.12,SW,225,2.0,8.0,51,0.00,,,0.00,Rainwise IP-100,2013-02-18 15:55:00,
2013-02-18 11:00:00,7.8,-6.0,30.13,NE,45,2.0,10.0,51,0.00,,,0.00,Rainwise IP-100,2013-02-18 16:00:00,
2013-02-18 11:05:00,8.2,-6.0,30.12,SSW,202,10.0,14.0,50,0.00,,,0.00,Rainwise IP-100,2013-02-18 16:05:00,
2013-02-18 11:13:00,9.2,-6.0,30.12,West,270,4.0,7.0,49,0.00,,,0.00,Rainwise IP-100,2013-02-18 16:13:00,
2013-02-18 11:18:00,9.3,-6.0,30.12,West,270,2.0,11.0,47,0.00,,,0.00,Rainwise IP-100,2013-02-18 16:18:00,
2013-02-18 11:23:00,10.1,-6.0,30.13,WNW,292,3.0,9.0,45,0.00,,,0.00,Rainwise IP-100,2013-02-18 16:23:00,
2013-02-18 11:29:00,10.2,-6.0,30.12,NW,315,4.0,12.0,45,0.00,,,0.00,Rainwise IP-100,2013-02-18 16:29:00,
2013-02-18 11:34:00,10.4,-6.0,30.12,SW,225,1.0,11.0,44,0.00,,,0.00,Rainwise IP-100,2013-02-18 16:34:00,
2013-02-18 11:39:00,11.2,-6.0,30.11,SW,225,3.0,10.0,43,0.00,,,0.00,Rainwise IP-100,2013-02-18 16:39:00,
2013-02-18 11:44:00,11.2,-6.0,30.11,SW,225,6.0,12.0,42,0.00,,,0.00,Rainwise IP-100,2013-02-18 16:44:00,
2013-02-18 11:49:00,11.5,-6.0,30.11,SW,225,8.0,10.0,41,0.00,,,0.00,Rainwise IP-100,2013-02-18 16:49:00,
2013-02-18 11:54:00,11.6,-6.0,30.11,SW,225,2.0,14.0,41,0.00,,,0.00,Rainwise IP-100,2013-02-18 16:54:00,
2013-02-18 11:59:00,11.6,-6.0,30.11,SW,225,4.0,11.0,41,0.00,,,0.00,Rainwise IP-100,2013-02-18 16:59:00,
2013-02-18 12:05:00,12.1,-6.0,30.11,WSW,247,4.0,10.0,41,0.00,,,0.00,Rainwise IP-100,2013-02-18 17:05:00,
2013-02-18 12:10:00,12.5,-6.0,30.11,West,270,2.0,11.0,40,0.00,,,0.00,Rainwise IP-100,2013-02-18 17:10:00,
2013-02-18 12:15:00,12.9,-6.0,30.11,WSW,247,8.0,12.0,39,0.00,,,0.00,Rainwise IP-100,2013-02-18 17:15:00,
2013-02-18 12:20:00,13.2,-6.0,30.10,South,180,1.0,12.0,40,0.00,,,0.00,Rainwise IP-100,2013-02-18 17:20:00,
2013-02-18 12:25:00,13.6,-6.0,30.11,SW,225,7.0,8.0,39,0.00,,,0.00,Rainwise IP-100,2013-02-18 17:25:00,
2013-02-18 12:31:00,13.9,-6.0,30.11,WNW,292,2.0,12.0,39,0.00,,,0.00,Rainwise IP-100,2013-02-18 17:31:00,
2013-02-18 12:36:00,13.9,-6.0,30.11,SSW,202,2.0,11.0,39,0.00,,,0.00,Rainwise IP-100,2013-02-18 17:36:00,
2013-02-18 12:41:00,14.7,0.0,30.10,SSW,202,6.0,16.0,39,0.00,,,0.00,Rainwise IP-100,2013-02-18 17:41:00,
2013-02-18 12:46:00,14.1,-6.0,30.10,South,180,2.0,15.0,38,0.00,,,0.00,Rainwise IP-100,2013-02-18 17:46:00,
2013-02-18 12:51:00,14.9,-6.0,30.10,NW,315,2.0,9.0,38,0.00,,,0.00,Rainwise IP-100,2013-02-18 17:51:00,
2013-02-18 12:56:00,15.1,-6.0,30.10,SSW,202,6.0,11.0,38,0.00,,,0.00,Rainwise IP-100,2013-02-18 17:56:00,
2013-02-18 13:01:00,15.1,-6.0,30.11,WNW,292,7.0,12.0,38,0.00,,,0.00,Rainwise IP-100,2013-02-18 18:01:00,
2013-02-18 13:06:00,15.5,-6.0,30.11,West,270,8.0,9.0,37,0.00,,,0.00,Rainwise IP-100,2013-02-18 18:06:00,
2013-02-18 13:11:00,15.2,-6.0,30.10,WNW,292,7.0,11.0,38,0.00,,,0.00,Rainwise IP-100,2013-02-18 18:11:00,
2013-02-18 13:16:00,15.3,-6.0,30.10,SW,225,7.0,13.0,38,0.00,,,0.00,Rainwise IP-100,2013-02-18 18:16:00,
2013-02-18 13:22:00,15.7,-6.0,30.11,West,270,6.0,15.0,37,0.00,,,0.00,Rainwise IP-100,2013-02-18 18:22:00,
2013-02-18 13:28:00,15.5,-6.0,30.11,ESE,112,2.0,13.0,37,0.00,,,0.00,Rainwise IP-100,2013-02-18 18:28:00,
2013-02-18 13:33:00,15.9,-6.0,30.11,SW,225,1.0,12.0,37,0.00,,,0.00,Rainwise IP-100,2013-02-18 18:33:00,
2013-02-18 13:38:00,15.8,-6.0,30.11,West,270,9.0,14.0,37,0.00,,,0.00,Rainwise IP-100,2013-02-18 18:38:00,
2013-02-18 13:43:00,15.9,-6.0,30.11,WNW,292,6.0,11.0,38,0.00,,,0.00,Rainwise IP-100,2013-02-18 18:43:00,
2013-02-18 13:48:00,16.3,-6.0,30.11,South,180,2.0,10.0,37,0.00,,,0.00,Rainwise IP-100,2013-02-18 18:48:00,
2013-02-18 13:53:00,16.7,0.0,30.10,ESE,112,4.0,9.0,36,0.00,,,0.00,Rainwise IP-100,2013-02-18 18:53:00,
2013-02-18 13:58:00,16.7,0.0,30.10,West,270,1.0,11.0,36,0.00,,,0.00,Rainwise IP-100,2013-02-18 18:58:00,
2013-02-18 14:03:00,16.9,0.0,30.10,SW,225,2.0,12.0,36,0.00,,,0.00,Rainwise IP-100,2013-02-18 19:03:00,
2013-02-18 14:08:00,17.4,0.0,30.10,SW,225,3.0,10.0,36,0.00,,,0.00,Rainwise IP-100,2013-02-18 19:08:00,
2013-02-18 14:13:00,17.2,0.0,30.10,West,270,11.0,12.0,36,0.00,,,0.00,Rainwise IP-100,2013-02-18 19:13:00,
2013-02-18 14:18:00,17.6,0.0,30.10,NW,315,2.0,11.0,36,0.00,,,0.00,Rainwise IP-100,2013-02-18 19:18:00,
2013-02-18 14:24:00,18.1,0.0,30.10,South,180,2.0,9.0,35,0.00,,,0.00,Rainwise IP-100,2013-02-18 19:24:00,
2013-02-18 14:29:00,17.9,0.0,30.11,NNE,22,2.0,12.0,35,0.00,,,0.00,Rainwise IP-100,2013-02-18 19:29:00,
2013-02-18 14:34:00,18.4,-6.0,30.11,SW,225,1.0,10.0,34,0.00,,,0.00,Rainwise IP-100,2013-02-18 19:34:00,
2013-02-18 14:39:00,18.1,-6.0,30.11,NW,315,2.0,11.0,34,0.00,,,0.00,Rainwise IP-100,2013-02-18 19:39:00,
2013-02-18 14:44:00,18.2,-6.0,30.11,West,270,4.0,11.0,34,0.00,,,0.00,Rainwise IP-100,2013-02-18 19:44:00,
2013-02-18 14:49:00,18.2,-6.0,30.11,ESE,112,0.0,14.0,34,0.00,,,0.00,Rainwise IP-100,2013-02-18 19:49:00,
2013-02-18 14:54:00,17.9,-6.0,30.11,SW,225,5.0,13.0,34,0.00,,,0.00,Rainwise IP-100,2013-02-18 19:54:00,
2013-02-18 14:59:00,18.0,-6.0,30.12,West,270,2.0,14.0,34,0.00,,,0.00,Rainwise IP-100,2013-02-18 19:59:00,
2013-02-18 15:04:00,18.3,-6.0,30.12,SW,225,4.0,8.0,34,0.00,,,0.00,Rainwise IP-100,2013-02-18 20:04:00,
2013-02-18 15:09:00,18.6,0.0,30.12,North,360,2.0,12.0,34,0.00,,,0.00,Rainwise IP-100,2013-02-18 20:09:00,
2013-02-18 15:14:00,18.6,0.0,30.12,SW,225,4.0,13.0,33,0.00,,,0.00,Rainwise IP-100,2013-02-18 20:14:00,
2013-02-18 15:19:00,18.8,0.0,30.12,SSW,202,1.0,11.0,33,0.00,,,0.00,Rainwise IP-100,2013-02-18 20:19:00,
2013-02-18 15:25:00,18.6,0.0,30.12,WNW,292,8.0,10.0,34,0.00,,,0.00,Rainwise IP-100,2013-02-18 20:25:00,
2013-02-18 15:30:00,18.4,-6.0,30.12,SW,225,2.0,12.0,34,0.00,,,0.00,Rainwise IP-100,2013-02-18 20:30:00,
2013-02-18 15:35:00,18.7,0.0,30.11,SSW,202,1.0,12.0,34,0.00,,,0.00,Rainwise IP-100,2013-02-18 20:35:00,
2013-02-18 15:40:00,18.7,0.0,30.11,SSW,202,5.0,14.0,34,0.00,,,0.00,Rainwise IP-100,2013-02-18 20:40:00,
2013-02-18 15:45:00,18.6,0.0,30.11,NNE,22,1.0,11.0,34,0.00,,,0.00,Rainwise IP-100,2013-02-18 20:45:00,
2013-02-18 15:50:00,18.8,0.0,30.11,NNW,337,1.0,9.0,35,0.00,,,0.00,Rainwise IP-100,2013-02-18 20:50:00,
2013-02-18 15:55:00,19.1,0.0,30.11,West,270,2.0,8.0,35,0.00,,,0.00,Rainwise IP-100,2013-02-18 20:55:00,
2013-02-18 16:00:00,19.2,0.0,30.11,ENE,67,7.0,8.0,35,0.00,,,0.00,Rainwise IP-100,2013-02-18 21:00:00,
2013-02-18 16:05:00,19.1,0.0,30.11,WSW,247,1.0,7.0,35,0.00,,,0.00,Rainwise IP-100,2013-02-18 21:05:00,
2013-02-18 16:10:00,19.3,0.0,30.11,East,90,1.0,4.0,36,0.00,,,0.00,Rainwise IP-100,2013-02-18 21:10:00,
2013-02-18 16:15:00,19.1,0.0,30.12,North,360,1.0,5.0,35,0.00,,,0.00,Rainwise IP-100,2013-02-18 21:15:00,
2013-02-18 16:20:00,19.0,0.0,30.12,SSW,202,2.0,8.0,36,0.00,,,0.00,Rainwise IP-100,2013-02-18 21:20:00,
2013-02-18 16:26:00,18.9,0.0,30.12,South,180,2.0,7.0,36,0.00,,,0.00,Rainwise IP-100,2013-02-18 21:26:00,
2013-02-18 16:31:00,18.1,0.0,30.12,SW,225,1.0,7.0,38,0.00,,,0.00,Rainwise IP-100,2013-02-18 21:31:00,
2013-02-18 16:36:00,17.8,0.0,30.13,South,180,1.0,7.0,38,0.00,,,0.00,Rainwise IP-100,2013-02-18 21:36:00,
2013-02-18 16:41:00,17.5,0.0,30.13,NE,45,1.0,4.0,39,0.00,,,0.00,Rainwise IP-100,2013-02-18 21:41:00,
2013-02-18 16:46:00,17.1,0.0,30.12,SW,225,1.0,6.0,39,0.00,,,0.00,Rainwise IP-100,2013-02-18 21:46:00,
2013-02-18 16:51:00,16.9,0.0,30.12,North,360,0.0,4.0,39,0.00,,,0.00,Rainwise IP-100,2013-02-18 21:51:00,
2013-02-18 16:56:00,16.6,0.0,30.12,SSW,202,1.0,3.0,40,0.00,,,0.00,Rainwise IP-100,2013-02-18 21:56:00,
2013-02-18 17:01:00,16.4,0.0,30.13,South,180,2.0,6.0,40,0.00,,,0.00,Rainwise IP-100,2013-02-18 22:01:00,
2013-02-18 17:06:00,15.9,0.0,30.13,ENE,67,1.0,2.0,42,0.00,,,0.00,Rainwise IP-100,2013-02-18 22:06:00,
2013-02-18 17:11:00,15.5,0.0,30.13,East,90,0.0,2.0,43,0.00,,,0.00,Rainwise IP-100,2013-02-18 22:11:00,
2013-02-18 17:16:00,14.7,0.0,30.13,East,90,1.0,2.0,43,0.00,,,0.00,Rainwise IP-100,2013-02-18 22:16:00,
2013-02-18 17:22:00,13.8,0.0,30.12,East,90,0.0,2.0,44,0.00,,,0.00,Rainwise IP-100,2013-02-18 22:22:00,
2013-02-18 17:28:00,13.1,0.0,30.12,East,90,0.0,0.0,48,0.00,,,0.00,Rainwise IP-100,2013-02-18 22:28:00,
2013-02-18 17:33:00,12.3,0.0,30.12,East,90,0.0,0.0,51,0.00,,,0.00,Rainwise IP-100,2013-02-18 22:33:00,
2013-02-18 17:38:00,11.6,0.0,30.12,East,90,0.0,0.0,54,0.00,,,0.00,Rainwise IP-100,2013-02-18 22:38:00,
2013-02-18 17:43:00,10.6,0.0,30.12,East,90,0.0,0.0,54,0.00,,,0.00,Rainwise IP-100,2013-02-18 22:43:00,
2013-02-18 17:48:00,9.9,0.0,30.13,East,90,0.0,0.0,57,0.00,,,0.00,Rainwise IP-100,2013-02-18 22:48:00,
2013-02-18 17:53:00,9.5,0.0,30.13,East,90,0.0,0.0,58,0.00,,,0.00,Rainwise IP-100,2013-02-18 22:53:00,
2013-02-18 17:58:00,8.8,0.0,30.13,East,90,0.0,0.0,58,0.00,,,0.00,Rainwise IP-100,2013-02-18 22:58:00,
2013-02-18 18:03:00,8.5,0.0,30.13,East,90,0.0,0.0,55,0.00,,,0.00,Rainwise IP-100,2013-02-18 23:03:00,
2013-02-18 18:08:00,8.4,-6.0,30.13,NW,315,0.0,2.0,58,0.00,,,0.00,Rainwise IP-100,2013-02-18 23:08:00,
2013-02-18 18:13:00,7.9,0.0,30.14,NW,315,0.0,2.0,61,0.00,,,0.00,Rainwise IP-100,2013-02-18 23:13:00,
2013-02-18 18:18:00,7.4,0.0,30.14,NW,315,0.0,2.0,61,0.00,,,0.00,Rainwise IP-100,2013-02-18 23:18:00,
2013-02-18 18:25:00,6.6,0.0,30.14,NW,315,1.0,2.0,63,0.00,,,0.00,Rainwise IP-100,2013-02-18 23:25:00,
2013-02-18 18:31:00,6.4,0.0,30.14,NW,315,0.0,2.0,63,0.00,,,0.00,Rainwise IP-100,2013-02-18 23:31:00,
2013-02-18 18:36:00,6.2,0.0,30.14,NW,315,1.0,2.0,64,0.00,,,0.00,Rainwise IP-100,2013-02-18 23:36:00,
2013-02-18 18:41:00,5.9,0.0,30.14,NW,315,0.0,2.0,63,0.00,,,0.00,Rainwise IP-100,2013-02-18 23:41:00,
2013-02-18 18:46:00,5.5,0.0,30.15,NW,315,0.0,0.0,65,0.00,,,0.00,Rainwise IP-100,2013-02-18 23:46:00,
2013-02-18 18:52:00,4.8,0.0,30.15,NW,315,1.0,2.0,69,0.00,,,0.00,Rainwise IP-100,2013-02-18 23:52:00,
2013-02-18 18:57:00,4.3,0.0,30.15,NW,315,1.0,2.0,71,0.00,,,0.00,Rainwise IP-100,2013-02-18 23:57:00,
2013-02-18 19:02:00,4.1,0.0,30.15,NW,315,0.0,2.0,73,0.00,,,0.00,Rainwise IP-100,2013-02-19 00:02:00,
2013-02-18 19:07:00,3.9,-6.0,30.15,NW,315,1.0,2.0,69,0.00,,,0.00,Rainwise IP-100,2013-02-19 00:07:00,
2013-02-18 19:12:00,3.8,-6.0,30.15,NW,315,2.0,2.0,69,0.00,,,0.00,Rainwise IP-100,2013-02-19 00:12:00,
2013-02-18 19:17:00,3.5,0.0,30.14,NW,315,1.0,2.0,70,0.00,,,0.00,Rainwise IP-100,2013-02-19 00:17:00,
2013-02-18 19:22:00,3.1,0.0,30.14,NW,315,1.0,2.0,73,0.00,,,0.00,Rainwise IP-100,2013-02-19 00:22:00,
2013-02-18 19:28:00,3.1,0.0,30.14,NW,315,1.0,2.0,73,0.00,,,0.00,Rainwise IP-100,2013-02-19 00:28:00,
2013-02-18 19:33:00,2.8,0.0,30.14,NW,315,0.0,1.0,72,0.00,,,0.00,Rainwise IP-100,2013-02-19 00:33:00,
2013-02-18 19:38:00,2.3,0.0,30.14,NW,315,2.0,2.0,73,0.00,,,0.00,Rainwise IP-100,2013-02-19 00:38:00,
2013-02-18 19:43:00,2.1,0.0,30.13,NW,315,1.0,2.0,75,0.00,,,0.00,Rainwise IP-100,2013-02-19 00:43:00,
2013-02-18 19:48:00,1.8,0.0,30.13,NW,315,0.0,1.0,75,0.00,,,0.00,Rainwise IP-100,2013-02-19 00:48:00,
2013-02-18 19:53:00,1.5,0.0,30.13,NW,315,0.0,0.0,75,0.00,,,0.00,Rainwise IP-100,2013-02-19 00:53:00,
2013-02-18 19:58:00,0.9,0.0,30.13,NW,315,0.0,0.0,76,0.00,,,0.00,Rainwise IP-100,2013-02-19 00:58:00,
2013-02-18 20:03:00,0.1,-6.0,30.13,NW,315,0.0,0.0,78,0.00,,,0.00,Rainwise IP-100,2013-02-19 01:03:00,
2013-02-18 20:08:00,0.2,-6.0,30.14,NW,315,2.0,2.0,81,0.00,,,0.00,Rainwise IP-100,2013-02-19 01:08:00,
2013-02-18 20:13:00,0.1,-6.0,30.14,NW,315,0.0,2.0,81,0.00,,,0.00,Rainwise IP-100,2013-02-19 01:13:00,
2013-02-18 20:18:00,0.1,-6.0,30.13,NW,315,1.0,0.0,81,0.00,,,0.00,Rainwise IP-100,2013-02-19 01:18:00,
2013-02-18 20:23:00,0.1,-6.0,30.13,NW,315,0.0,1.0,81,0.00,,,0.00,Rainwise IP-100,2013-02-19 01:23:00,
2013-02-18 20:29:00,0.3,-6.0,30.13,NW,315,0.0,0.0,81,0.00,,,0.00,Rainwise IP-100,2013-02-19 01:29:00,
2013-02-18 20:34:00,0.7,-6.0,30.13,NW,315,0.0,0.0,81,0.00,,,0.00,Rainwise IP-100,2013-02-19 01:34:00,
2013-02-18 20:39:00,-1.1,-6.0,30.13,NW,315,0.0,0.0,82,0.00,,,0.00,Rainwise IP-100,2013-02-19 01:39:00,
2013-02-18 20:44:00,-1.2,-6.0,30.13,NW,315,0.0,0.0,83,0.00,,,0.00,Rainwise IP-100,2013-02-19 01:44:00,
2013-02-18 20:49:00,-1.2,-6.0,30.12,NW,315,0.0,1.0,83,0.00,,,0.00,Rainwise IP-100,2013-02-19 01:49:00,
2013-02-18 20:54:00,0.9,-6.0,30.13,NW,315,0.0,1.0,83,0.00,,,0.00,Rainwise IP-100,2013-02-19 01:54:00,
2013-02-18 20:59:00,-1.1,-6.0,30.13,NW,315,0.0,0.0,83,0.00,,,0.00,Rainwise IP-100,2013-02-19 01:59:00,
2013-02-18 21:04:00,-1.3,-6.0,30.13,NW,315,0.0,0.0,82,0.00,,,0.00,Rainwise IP-100,2013-02-19 02:04:00,
2013-02-18 21:09:00,-1.5,-6.0,30.13,NW,315,0.0,0.0,82,0.00,,,0.00,Rainwise IP-100,2013-02-19 02:09:00,
2013-02-18 21:14:00,-1.9,-6.0,30.12,NW,315,0.0,0.0,84,0.00,,,0.00,Rainwise IP-100,2013-02-19 02:14:00,
2013-02-18 21:19:00,-1.9,-6.0,30.12,NW,315,1.0,2.0,85,0.00,,,0.00,Rainwise IP-100,2013-02-19 02:19:00,
2013-02-18 21:24:00,-1.9,-6.0,30.12,NW,315,0.0,1.0,85,0.00,,,0.00,Rainwise IP-100,2013-02-19 02:24:00,
2013-02-18 21:30:00,-2.1,-6.0,30.12,NW,315,0.0,0.0,85,0.00,,,0.00,Rainwise IP-100,2013-02-19 02:30:00,
2013-02-18 21:35:00,-2.2,-6.0,30.12,NW,315,0.0,0.0,86,0.00,,,0.00,Rainwise IP-100,2013-02-19 02:35:00,
2013-02-18 21:40:00,-2.3,-6.0,30.11,NW,315,0.0,1.0,86,0.00,,,0.00,Rainwise IP-100,2013-02-19 02:40:00,
2013-02-18 21:45:00,-2.4,-6.0,30.11,NW,315,0.0,0.0,87,0.00,,,0.00,Rainwise IP-100,2013-02-19 02:45:00,
2013-02-18 21:50:00,-2.4,-6.0,30.11,NW,315,0.0,0.0,86,0.00,,,0.00,Rainwise IP-100,2013-02-19 02:50:00,
2013-02-18 21:55:00,-2.4,0.0,30.11,NW,315,0.0,0.0,88,0.00,,,0.00,Rainwise IP-100,2013-02-19 02:55:00,
2013-02-18 22:00:00,-2.3,-6.0,30.11,NW,315,0.0,0.0,87,0.00,,,0.00,Rainwise IP-100,2013-02-19 03:00:00,
2013-02-18 22:05:00,-2.3,-6.0,30.10,NW,315,0.0,0.0,86,0.00,,,0.00,Rainwise IP-100,2013-02-19 03:05:00,
2013-02-18 22:11:00,-2.4,-6.0,30.09,NW,315,1.0,0.0,87,0.00,,,0.00,Rainwise IP-100,2013-02-19 03:11:00,
2013-02-18 22:16:00,-1.9,-6.0,30.09,NW,315,1.0,2.0,87,0.00,,,0.00,Rainwise IP-100,2013-02-19 03:16:00,
2013-02-18 22:21:00,-1.5,-6.0,30.09,NW,315,0.0,1.0,86,0.00,,,0.00,Rainwise IP-100,2013-02-19 03:21:00,
2013-02-18 22:26:00,-1.7,-6.0,30.09,NW,315,0.0,0.0,86,0.00,,,0.00,Rainwise IP-100,2013-02-19 03:26:00,
2013-02-18 22:32:00,-1.9,-6.0,30.08,NW,315,0.0,0.0,85,0.00,,,0.00,Rainwise IP-100,2013-02-19 03:32:00,
2013-02-18 22:37:00,-2.3,-6.0,30.08,NW,315,0.0,0.0,87,0.00,,,0.00,Rainwise IP-100,2013-02-19 03:37:00,
2013-02-18 22:42:00,-2.6,0.0,30.07,NW,315,0.0,0.0,88,0.00,,,0.00,Rainwise IP-100,2013-02-19 03:42:00,
2013-02-18 22:47:00,-2.8,-6.0,30.07,NW,315,0.0,1.0,87,0.00,,,0.00,Rainwise IP-100,2013-02-19 03:47:00,
2013-02-18 22:52:00,-2.7,0.0,30.07,NW,315,0.0,2.0,88,0.00,,,0.00,Rainwise IP-100,2013-02-19 03:52:00,
2013-02-18 22:57:00,-2.5,-6.0,30.07,NW,315,0.0,0.0,87,0.00,,,0.00,Rainwise IP-100,2013-02-19 03:57:00,
2013-02-18 23:03:00,-2.3,-6.0,30.08,NW,315,0.0,0.0,87,0.00,,,0.00,Rainwise IP-100,2013-02-19 04:03:00,
2013-02-18 23:08:00,-2.4,-6.0,30.08,NW,315,0.0,0.0,87,0.00,,,0.00,Rainwise IP-100,2013-02-19 04:08:00,
2013-02-18 23:13:00,-2.4,-6.0,30.08,NW,315,1.0,2.0,87,0.00,,,0.00,Rainwise IP-100,2013-02-19 04:13:00,
2013-02-18 23:18:00,-1.7,-6.0,30.07,NW,315,1.0,2.0,86,0.00,,,0.00,Rainwise IP-100,2013-02-19 04:18:00,
2013-02-18 23:23:00,-1.1,-6.0,30.07,NW,315,1.0,2.0,85,0.00,,,0.00,Rainwise IP-100,2013-02-19 04:23:00,
2013-02-18 23:28:00,-1.1,-6.0,30.07,NW,315,0.0,2.0,85,0.00,,,0.00,Rainwise IP-100,2013-02-19 04:28:00,
2013-02-18 23:34:00,-1.3,-6.0,30.08,NW,315,0.0,0.0,86,0.00,,,0.00,Rainwise IP-100,2013-02-19 04:34:00,
2013-02-18 23:39:00,-1.3,-6.0,30.07,NW,315,0.0,1.0,87,0.00,,,0.00,Rainwise IP-100,2013-02-19 04:39:00,
2013-02-18 23:44:00,-1.4,-6.0,30.07,NW,315,0.0,0.0,87,0.00,,,0.00,Rainwise IP-100,2013-02-19 04:44:00,
2013-02-18 23:49:00,-1.5,0.0,30.07,NW,315,0.0,0.0,88,0.00,,,0.00,Rainwise IP-100,2013-02-19 04:49:00,
2013-02-18 23:54:00,-1.4,-6.0,30.07,NW,315,1.0,2.0,87,0.00,,,0.00,Rainwise IP-100,2013-02-19 04:54:00,
2013-02-18 23:59:00,-1.1,-6.0,30.07,NW,315,0.0,2.0,86,0.00,,,0.00,Rainwise IP-100,2013-02-19 04:59:00,